Location: Newark
(49.8348°N, 24.0280°E)
Time: 12:46:37
(UTC+00:00)

S-56A Canister/Altair - Pass Details

Date: 29 January 2020
Orbit: 633 x 2500 km, 38.9° (Epoch: 28 February)

Event Time Altitude Azimuth Distance (km) Brightness Sun altitude
Rises 16:28:41 0° 216° (SW) 4,863 12.5 -12.3°
Reaches altitude 10° 16:33:21 10° 201° (SSW) 3,493 11.3 -13.0°
Maximum altitude 16:38:51 19° 160° (SSE) 2,409 10.0 -13.9°
Enters shadow 16:42:55 11° 119° (ESE) 2,614 9.8 -14.6°
Drops below altitude 10° 16:43:12 10° 117° (ESE) 2,667 - -14.6°
Sets 16:46:09 0° 99° (E) 3,383 - -15.1°
